EHI
15 16 17 17 18 17 15 14 16 18 19 20 18 15 10 8 9 7 5 6 6 4 4 7 11 14 15 13 11 12 10 7 8 7 5 4 4 3 3 3 4 3 3
16 17 19 19 18 16 13 13 15 17 17 17 17 14 10 8 7 6 5 5 4 4 4 5 10 13 15 13 13 14 11 8 8 9 7 6 5 3 2 3 4 2 1
15 16 18 18 17 14 11 12 14 15 13 14 13 11 8 6 5 5 4 4 4 5 5 6 8 11 13 13 14 15 14 10 8 9 8 6 5 3 3 3 3 2 1
12 13 14 14 13 11 10 10 12 12 10 10 9 8 6 3 2 2 2 3 4 6 7 7 8 9 10 11 12 12 14 11 8 7 6 4 4 4 4 3 3 2 1
10 11 11 10 8 7 6 7 9 10 7 6 5 6 5 2 0 1 1 1 4 6 6 7 9 9 9 9 9 10 11 10 8 6 5 2 2 3 4 3 2 1 0
8 9 9 7 4 3 3 4 6 8 6 4 3 4 4 2 1 2 1 1 2 4 5 6 8 9 7 7 7 7 6 6 7 6 4 1 1 3 3 3 2 1 1
5 6 6 5 3 2 2 3 4 5 4 3 3 3 3 3 3 3 2 1 0 2 3 4 5 5 5 4 5 4 3 3 3 3 2 0 1 3 3 3 3 3 3
2 4 5 5 2 1 2 2 2 2 2 2 3 4 3 3 3 3 3 1 1 1 1 2 2 2 2 2 2 3 3 3 2 1 0 0 0 1 2 3 3 3 3
1 3 5 5 2 0 1 1 1 1 1 2 3 4 4 3 3 3 3 2 1 0 0 0 0 1 1 1 2 2 2 3 3 1 0 0 0 0 1 2 2 2 2
1 3 5 4 1 0 0 0 1 2 2 3 3 4 4 3 3 3 3 2 1 0 0 0 0 0 0 1 1 1 1 1 1 0 0 0 0 0 1 1 1 1 2
0 1 3 3 1 0 0 1 1 3 3 4 5 6 5 4 4 3 3 1 0 0 0 0 0 0 0 0 0 0 0 0 0 0 0 0 0 0 0 0 0 1 2
0 1 1 1 0 0 0 1 2 3 3 4 6 7 7 6 5 3 2 1 0 0 0 0 0 0 0 0 0 0 0 0 0 0 0 0 0 0 0 0 1 2 2
0 0 0 0 0 0 0 1 3 3 4 5 6 7 7 7 6 3 1 0 0 0 0 0 0 0 0 0 0 0 0 0 0 0 0 0 0 0 0 0 1 1 1
0 0 0 0 0 0 0 1 2 3 3 4 5 6 6 7 5 3 1 0 0 0 0 0 0 0 0 0 0 0 0 0 0 0 0 0 0 0 0 0 0 0 0
0 0 0 0 0 0 0 1 2 3 3 3 4 4 5 5 4 2 1 0 0 0 0 0 0 0 0 0 0 0 0 0 0 0 0 0 0 0 0 0 0 0 0
0 0 0 0 0 0 0 0 1 2 3 3 3 3 4 3 2 1 0 0 0 0 0 0 0 0 0 0 0 0 0 0 0 0 0 0 0 0 0 0 0 0 0
0 0 0 0 0 0 0 0 1 1 2 2 2 2 2 1 1 0 0 0 0 0 0 0 0 1 1 0 0 0 0 0 0 0 0 0 0 0 0 0 0 0 0
0 0 0 0 0 0 0 0 0 0 0 1 1 1 1 0 0 0 0 0 0 1 0 0 1 1 1 0 0 0 0 0 0 0 0 0 0 0 0 0 0 0 0
1 1 0 0 0 0 0 0 0 0 0 0 0 0 0 0 0 0 0 0 0 0 0 0 0 1 1 1 0 0 0 0 0 0 0 0 0 0 0 0 0 0 0
2 1 0 0 0 0 0 0 0 0 0 0 0 0 0 0 0 0 0 0 0 0 0 0 0 1 1 1 0 0 0 0 0 0 0 0 0 0 0 0 0 0 0
1 1 0 1 1 1 0 0 0 0 0 0 0 0 0 0 0 0 0 0 0 0 0 0 0 0 0 0 0 0 0 0 0 0 0 0 0 0 0 0 0 0 0
0 0 0 1 2 2 1 0 0 0 0 0 0 0 0 0 1 1 1 0 0 0 0 1 0 0 0 0 0 0 0 0 0 0 0 0 0 0 0 0 0 0 0
0 0 0 1 2 3 2 1 0 0 0 0 0 0 0 1 2 2 1 0 0 0 0 0 0 0 0 0 0 0 0 0 0 0 0 0 0 0 0 0 0 0 0
0 0 0 0 1 2 2 1 0 0 0 0 0 0 0 1 2 2 1 0 0 0 0 0 0 0 0 0 0 0 0 0 0 0 0 0 0 0 0 0 0 0 0
1 0 0 0 0 1 1 0 0 0 0 0 0 0 0 0 1 1 0 0 0 0 0 0 0 0 0 0 0 0 0 0 0 0 0 0 0 0 0 0 0 0 0
1 1 0 0 0 0 0 0 0 1 1 1 0 0 0 0 0 0 0 0 0 0 0 0 0 0 0 0 0 0 0 0 0 0 0 0 0 0 0 0 0 0 0
Wind_Speed
5 5 5 5 5 5 5 5 5 4 3 2 1 1 2 2 2 1 2 2 3 3 4 4 3 4 4 4 4 4 5 4 4 4 5 5 7 6 5 6 6 7 8
4 5 5 5 5 5 4 4 4 4 4 3 2 1 2 2 2 2 2 3 3 3 4 4 4 4 4 4 4 4 4 3 2 3 4 4 4 5 6 5 6 6 6
5 5 5 5 5 5 4 4 4 4 4 3 2 1 1 2 1 2 2 3 3 3 4 4 5 4 5 3 4 5 5 4 4 3 4 4 4 3 3 5 5 5 5
4 4 5 5 5 4 4 3 3 3 3 3 3 3 3 3 3 3 2 3 3 3 4 5 5 5 4 4 4 3 4 5 4 4 4 4 4 4 4 4 4 5 6
5 5 5 5 4 4 4 3 3 3 3 3 3 3 3 3 3 3 3 4 3 3 4 4 4 4 4 4 4 3 4 4 4 4 4 5 4 6 5 6 5 5 5
5 5 5 5 4 4 3 3 3 3 3 4 4 4 4 5 4 4 4 3 2 3 3 4 3 4 3 3 3 3 4 3 4 4 4 4 4 4 5 6 6 5 5
4 5 5 5 5 5 4 4 3 4 4 4 4 4 5 5 5 5 4 4 3 2 2 3 3 3 3 3 3 3 4 4 4 4 4 5 5 4 4 6 6 6 5
5 5 5 5 5 5 4 4 4 4 5 5 5 5 5 5 3 4 5 4 3 3 3 3 3 3 4 4 3 3 4 3 4 4 4 4 4 4 5 5 6 6 6
5 5 5 6 5 5 5 5 5 5 5 6 6 5 5 5 4 4 4 3 3 3 4 4 4 4 4 4 4 3 3 3 3 3 4 4 4 4 5 5 6 6 7
5 6 5 5 5 5 5 5 5 5 6 6 6 5 5 4 4 4 4 4 4 4 4 4 5 5 5 4 4 4 2 3 3 3 3 4 4 4 5 5 5 6 7
6 5 5 5 5 5 5 5 6 6 6 6 6 6 5 4 4 3 4 4 4 3 4 5 5 5 4 4 3 3 3 3 3 4 4 4 5 5 5 5 5 5 5
6 6 5 5 5 6 6 6 6 6 6 6 6 5 5 5 4 4 4 4 3 4 4 4 4 4 4 3 4 3 3 4 4 4 4 5 4 5 5 5 5 4 5
6 6 5 5 6 6 6 6 7 7 7 7 6 5 5 5 5 4 4 3 3 3 4 4 4 4 3 3 3 4 4 4 4 4 5 5 5 6 5 5 5 4 4
6 6 5 6 6 7 7 7 7 7 8 7 6 5 5 5 4 4 4 3 3 3 3 3 3 3 3 3 3 3 3 4 4 4 5 5 5 5 6 5 6 5 5
7 6 6 6 6 7 7 7 8 7 7 7 6 5 5 5 4 4 3 3 3 4 3 3 3 3 3 2 3 3 3 3 4 4 4 4 4 5 5 6 6 6 5
8 7 7 6 6 7 8 7 7 7 7 7 7 6 6 5 4 3 3 3 3 3 3 3 3 3 2 2 2 4 4 3 3 3 3 4 3 3 4 5 6 6 6
9 8 7 6 7 7 7 8 7 6 6 7 6 6 6 5 4 3 3 3 3 3 3 3 3 2 1 1 2 4 4 4 3 3 3 3 3 3 4 3 4 4 5
8 8 7 7 7 7 7 7 7 6 6 6 6 6 5 4 3 3 3 3 3 3 3 3 3 3 2 0 2 4 4 3 3 3 3 3 4 4 5 5 4 4 3
8 7 7 7 7 7 7 7 6 6 6 6 7 6 6 5 4 3 3 3 3 3 3 3 3 3 1 0 1 4 4 2 3 3 3 3 3 3 4 4 4 4 3
7 7 7 6 6 6 7 6 6 6 7 7 7 7 6 5 4 3 4 3 3 3 4 3 2 3 2 1 1 4 3 2 2 2 1 1 2 3 3 4 4 4 4
7 7 7 6 6 6 6 7 7 7 7 7 7 7 6 5 4 3 3 3 3 3 4 3 2 2 2 1 1 2 3 3 3 3 2 2 2 2 4 5 4 4 6
7 8 7 6 6 6 6 6 7 7 7 7 7 7 6 5 3 3 4 4 4 4 3 2 2 2 1 0 1 2 2 4 4 3 3 2 2 4 5 4 4 6 7
7 7 8 7 6 6 6 7 7 7 7 7 7 7 6 4 4 4 4 4 3 4 3 2 2 2 1 1 3 3 3 3 3 3 2 3 4 5 4 3 6 6 4
7 7 7 7 6 6 6 7 7 7 7 7 7 6 5 4 4 4 4 4 3 3 3 2 2 2 1 1 1 1 1 3 3 2 2 5 6 6 3 3 3 3 3
7 7 7 7 7 7 6 6 6 6 6 6 6 6 5 4 4 4 4 4 3 3 4 3 2 2 2 3 4 4 3 3 3 4 3 2 1 1 1 2 2 3 2
8 8 8 8 8 8 7 7 6 6 6 6 6 5 5 4 4 3 2 1 2 1 2 3 4 2 2 2 3 3 4 4 5 4 3 2 2 2 2 2 2 2 3
Wind_Direction
36 33 31 29 25 23 25 26 20 15 357 341 323 311 301 304 299 298 314 288 281 265 256 264 253 255 252 258 260 258 253 256 266 266 263 252 241 243 242 244 249 244 246
32 29 25 24 23 21 20 22 19 11 356 355 335 318 308 303 303 305 290 278 279 275 260 264 263 257 259 253 259 258 264 259 248 268 270 262 241 231 235 244 246 255 253
10 14 14 13 12 15 14 15 12 1 353 342 316 306 254 257 275 292 278 279 279 269 274 265 266 268 262 262 261 255 252 258 244 244 266 274 275 291 234 246 257 262 266
0 2 5 2 5 8 11 15 6 2 354 332 330 313 305 304 306 300 305 296 280 272 261 264 261 263 267 267 263 261 259 258 257 240 247 263 286 281 282 256 257 262 265
356 358 358 358 359 3 2 3 5 4 355 338 325 301 293 292 290 292 290 287 283 276 272 265 265 259 261 263 268 267 259 257 263 262 258 255 250 252 267 281 275 263 264
357 359 2 3 0 359 355 355 359 354 338 326 323 309 299 293 295 294 290 281 283 280 278 270 269 262 263 256 260 266 254 266 269 270 265 262 264 261 265 271 275 276 276
355 359 1 0 357 353 350 348 345 335 329 324 317 306 295 283 277 282 283 283 279 275 279 281 273 273 264 258 263 258 264 259 261 265 268 268 270 273 268 271 279 279 276
352 351 353 354 353 349 346 339 331 325 323 320 315 304 291 283 285 286 290 282 281 287 288 278 274 267 255 255 253 262 260 257 263 269 278 271 269 270 267 270 278 279 277
345 343 345 346 346 343 344 336 328 320 313 311 310 303 297 293 290 280 275 281 277 271 266 269 262 256 250 252 251 263 269 266 265 274 274 277 281 278 275 271 272 278 282
340 339 337 341 341 338 339 332 323 316 309 308 310 310 299 289 285 281 288 286 276 272 271 273 269 264 255 249 255 263 266 271 274 278 283 286 288 291 284 278 274 274 277
335 329 332 340 339 337 336 335 329 321 314 310 310 309 297 289 285 286 287 282 278 272 266 264 265 264 260 257 254 263 266 269 273 273 272 278 286 289 289 286 282 277 276
330 327 334 336 337 339 339 337 332 330 321 311 304 303 301 296 293 289 289 284 280 274 272 268 265 264 260 258 256 254 260 267 269 271 272 276 277 276 281 285 285 285 283
326 326 329 329 333 333 334 332 330 332 324 316 307 308 310 304 298 295 292 288 287 287 280 273 268 264 263 262 260 256 261 268 273 276 276 277 278 278 285 285 285 283 281
325 325 328 329 332 329 328 325 327 331 327 321 316 316 313 306 297 296 296 296 296 291 284 275 274 273 276 279 277 274 276 279 283 283 280 280 285 290 293 288 286 285 285
325 326 327 331 330 329 326 326 329 332 327 321 322 320 318 310 302 297 299 305 306 298 292 278 276 274 273 295 311 288 283 290 290 287 285 286 294 308 297 298 300 294 286
325 324 323 326 327 326 323 324 326 327 326 323 321 324 319 315 311 301 300 304 304 302 299 290 283 278 301 30 343 293 291 287 280 282 286 281 269 291 275 278 285 291 290
327 324 322 321 324 323 321 318 320 322 320 318 317 320 312 309 309 304 304 301 298 297 296 295 292 292 327 359 278 270 275 280 285 280 290 302 317 290 300 285 254 264 268
326 327 324 321 321 319 315 313 318 319 318 317 319 323 315 307 311 314 311 306 304 299 293 294 295 290 306 327 281 283 266 279 283 285 293 298 304 325 317 307 308 307 314
325 323 320 315 316 317 315 314 319 324 324 323 324 325 322 315 313 314 309 303 305 301 295 294 292 291 302 22 278 280 270 271 294 299 305 303 311 359 322 298 304 309 317
327 324 321 315 312 318 316 313 317 321 320 320 320 322 321 312 305 305 304 306 299 290 290 295 285 290 291 173 251 281 277 299 302 298 292 42 345 352 322 299 302 308 317
327 324 321 315 318 321 314 310 313 318 318 317 318 320 317 307 293 297 302 301 298 301 298 298 299 298 298 185 201 280 289 306 304 306 309 30 71 333 309 295 301 310 306
327 326 321 316 316 317 310 309 314 318 318 316 313 316 315 306 302 293 290 290 291 284 278 278 286 293 277 290 176 214 258 298 305 312 326 25 15 301 290 290 298 289 283
323 321 319 315 314 313 310 308 312 314 312 311 314 316 312 304 297 287 282 277 278 286 292 289 300 318 339 126 172 200 219 244 275 315 338 297 265 267 255 241 265 268 276
320 316 315 314 313 314 310 306 307 313 312 313 312 308 302 298 297 289 290 294 301 299 297 306 313 322 333 349 20 273 214 212 228 273 261 239 246 250 267 258 249 282 333
318 314 312 311 309 309 308 308 308 308 307 306 307 306 303 303 297 293 302 298 306 318 304 311 310 314 325 20 8 328 324 324 343 318 278 271 280 292 326 340 352 338 326
315 312 310 310 310 311 312 312 309 304 298 297 300 301 301 299 291 288 285 310 286 254 258 289 302 331 21 11 334 320 310 294 287 278 272 290 307 323 342 347 344 336 338